#timestamp,LO_Frequency,Hit,StdDev 
1531764015.3,286047000.3,N
1531764035.1,286047002.1,N
1531764055.9,286047002.7,N
1531764075.7,286047002.8,N
1531764095.5,286047001.9,N
1531764115.4,286047002.3,N
1531764135.2,286046999.7,N
1531764155.1,286047002.2,N
1531764156.0,286047002.2,N
1531764175.8,286047002.8,N
1531764195.6,286047002.3,N
1531764215.5,286047001.3,N
1531764235.3,286047001.6,N
1531764255.1,286047002.1,N
1531764275.9,286047001.4,N
1531764295.7,286047002.2,N
1531764315.6,286047002.4,N
1531764335.4,286047001.6,N
1531764355.2,286047001.4,N
1531764375.1,286047004.3,Y
1531764376.0,286047004.3,P
1531764395.8,286046999.8,N
1531764415.7,286047002.4,N
1531764435.5,286046999.9,N
1531764455.3,286047000.4,N
1531764475.2,286047002.2,N
1531764495.0,286047005.5,Y
1531764495.9,286047005.5,P
1531764515.8,286047000.2,N
1531764535.6,286047000.5,N
1531764555.4,286047000.5,N
1531764575.3,286047000.0,N
1531764595.1,286047000.4,N
1531764615.8,286046999.9,N
1531764635.7,286047000.1,N
1531764655.5,286047002.7,N
1531764675.4,286046999.8,N
1531764695.2,286047003.1,N
1531764715.0,286047002.7,N
1531764715.9,286047002.7,N
1531764735.8,286047004.8,N
1531764755.6,286047007.5,Y
1531764775.4,286047003.1,P
1531764795.3,286047003.9,P
1531764815.1,286047000.0,N
1531764835.9,286046999.9,N
1531764855.7,286046998.8,N
1531764875.5,286046998.2,N
1531764895.4,286046998.8,N
1531764915.2,286046999.4,N
1531764935.0,286046997.0,N
1531764935.9,286046997.0,N
1531764955.8,286046997.1,N
1531764975.6,286046996.7,N
1531764995.5,286046997.4,N
1531765015.3,286046995.3,N
1531765035.1,286046995.4,N
1531765055.9,286046997.6,N
1531765105.7,286046995.7,E
1531765115.7,286046996.7,N
1531765135.5,286047000.7,P
1531765155.3,286047000.6,N
1531765175.2,286047001.1,N
1531765195.0,286046998.3,N
1531765195.9,286046998.3,N
1531765215.7,286046999.0,N
1531765235.6,286046999.3,N
1531765255.4,286046999.3,N
1531765275.3,286046996.9,N
1531765295.1,286046997.3,N
1531765296.0,286046997.3,N
1531765315.8,286046995.4,Y
1531765335.7,286046997.1,P
1531765355.5,286046996.5,P
1531765375.3,286046999.3,N
1531765395.2,286046998.5,N
1531765415.0,286046996.8,Y
1531765415.9,286046996.8,P
1531765435.8,286047001.2,N
1531765455.6,286046998.1,N
1531765475.4,286047000.3,N
1531765495.3,286047000.5,N
1531765515.1,286047000.4,N
1531765535.9,286046999.9,N
1531765555.7,286047000.6,N
1531765575.5,286047001.1,N
1531765595.4,286046998.5,N
1531765615.2,286046998.6,N
1531765635.1,286046998.4,N
1531765636.0,286046998.4,N
1531765655.8,286046998.1,N
1531765675.6,286047000.1,N
1531765695.5,286047000.2,N
1531765715.3,286047000.6,N
1531765735.1,286047000.0,N
1531765755.9,286047000.4,N
1531765775.7,286046998.6,N
1531765795.6,286046998.6,N
1531765815.4,286046998.3,N
1531765835.2,286046998.7,N
1531765855.1,286046998.3,N
1531765856.0,286046998.3,N
1531765875.8,286046998.9,N
1531765895.6,286046998.9,N
1531765915.5,286046998.4,N
1531765935.3,286047000.2,N
1531765955.2,286046998.5,N
1531765975.9,286046998.6,N
1531765995.7,286046998.4,N
1531766015.6,286046999.3,N
1531766035.4,286046998.2,N
1531766055.2,286046998.7,N
1531766075.1,286046998.5,N
1531766076.0,286046998.5,N
1531766095.8,286046998.3,N
1531766115.7,286046998.6,N
1531766135.5,286046998.5,N
1531766155.3,286046998.8,N
1531766175.2,286046996.6,Y
1531766195.0,286047001.2,P
1531766195.9,286047001.2,N
1531766215.7,286046999.2,N
1531766235.6,286046998.8,N
1531766255.4,286046999.4,N
1531766275.3,286046998.3,N
1531766295.1,286046998.1,N
1531766296.0,286046998.1,N
1531766315.8,286047000.8,N
1531766335.7,286046998.1,N
1531766355.5,286046999.3,N
1531766375.3,286046998.8,N
1531766395.2,286046998.5,N
1531766415.0,286046998.1,N
1531766415.9,286046998.1,N
1531766435.8,286046998.6,N
1531766455.6,286046998.1,N
1531766475.4,286046998.7,N
1531766495.3,286046999.2,N
1531766515.1,286046999.0,N
1531766535.8,286046998.3,N
1531766555.7,286046999.3,N
1531766575.5,286046999.4,N
1531766595.4,286046997.0,Y
1531766615.2,286046999.3,P
1531766635.0,286047001.1,P
1531766635.9,286047001.1,N
1531766655.8,286047001.0,N
1531766675.6,286047000.8,N
1531766695.4,286046998.1,N
1531766715.3,286047000.7,N
1531766735.1,286047000.7,N
1531766755.9,286047000.8,N
1531766775.7,286046998.6,N
1531766795.5,286047001.1,N
1531766815.4,286047000.0,N
1531766835.2,286047000.5,N
1531766855.0,286047001.0,N
1531766855.9,286047001.0,N
1531766875.8,286046999.9,N
1531766895.6,286046999.9,N
1531766915.5,286047000.9,N
1531766935.3,286047001.2,N
1531766955.1,286047001.1,N
1531766975.9,286046998.2,N
1531766995.7,286046998.6,N
1531767015.5,286046998.8,N
1531767035.4,286046996.6,Y
1531767055.2,286046999.1,P
1531767075.1,286046999.6,N
1531767076.0,286046999.6,N
1531767095.8,286046999.0,N
1531767115.6,286046999.3,N
1531767135.5,286046999.4,N
1531767155.3,286046999.4,N
1531767175.2,286046998.2,Y
1531767195.9,286047001.1,P
1531767215.7,286047001.0,N
1531767235.6,286047001.0,N
1531767255.4,286047001.1,N
1531767275.2,286047000.8,N
1531767295.1,286047000.9,N
1531767296.0,286047000.9,N
1531767315.8,286046998.7,N
1531767335.7,286046998.2,N
1531767355.5,286046998.6,N
1531767375.3,286047000.7,N
1531767395.2,286046998.6,N
1531767415.0,286046998.7,N
1531767415.9,286046998.7,N
1531767435.8,286047001.2,N
1531767455.6,286046998.7,N
1531767475.4,286046998.8,N
1531767495.3,286046998.4,N
1531767515.1,286046999.3,N
1531767535.9,286047000.8,N
1531767555.7,286047001.2,N
1531767575.5,286046999.8,N
1531767595.4,286047000.5,N
